Stations météo

réclame
Mon MeteoGroup
F3, Pays-Bas (6239): Température de l'air & dewpoint: 18.02.2018 22:00:00 - 24.02.2018 22:00:00 (CET)F3, Pays-Bas (6239): Vitesse du vent & gusts: 18.02.2018 22:00:00 - 24.02.2018 22:00:00 (CET)F3, Pays-Bas (6239): Direction du vent: 18.02.2018 22:00:00 - 24.02.2018 22:00:00 (CET)F3, Pays-Bas (6239): reduced air pressure: 18.02.2018 22:00:00 - 24.02.2018 22:00:00 (CET)F3, Pays-Bas (6239): visibility: 18.02.2018 22:00:00 - 24.02.2018 22:00:00 (CET)
Date & Time tt [°C] td [°C] ff [km/h] ff [knt] fx [km/h] fx [knt] dd ppp [hPa] vv [km]
24.02.2018 22:00:00 1,5 -5,2 42 23 43 23 E 1033,0 10
24.02.2018 21:00:00 1,7 -5,1 44 24 47 25 E 1032,9 10
24.02.2018 20:00:00 1,8 -5,1 41 22 43 23 E 1032,8 10
24.02.2018 19:00:00 1,8 -4,6 41 22 43 23 E 1032,4 10
24.02.2018 18:00:00 2,0 -3,5 32 18 43 23 E 1032,0 47
24.02.2018 17:00:00 2,1 -3,4 41 22 43 23 E 1031,9 10
24.02.2018 16:00:00 2,5 -2,0 39 21 40 21 E 1031,8 10
24.02.2018 15:00:00 2,5 -1,8 41 22 40 21 ESE 1031,8 10
24.02.2018 14:00:00 2,4 -2,2 37 20 43 23 ESE 1031,7 10
24.02.2018 13:00:00 2,3 -1,8 42 23 43 23 ESE 1031,8 10
24.02.2018 12:00:00 1,9 -2,0 41 22 47 25 ESE 1031,7 10
24.02.2018 11:00:00 1,8 -2,1 44 24 47 25 ESE 1031,3 10
24.02.2018 10:00:00 1,6 -2,3 46 25 47 25 E 1030,9 10
24.02.2018 09:00:00 1,7 -2,0 48 26 47 25 E 1030,3 10
24.02.2018 08:00:00 2,0 -1,6 48 26 47 25 ESE 1029,8 10
24.02.2018 07:00:00 2,4 -1,3 46 25 47 25 E 1029,2 10
24.02.2018 06:00:00 2,3 -1,8 48 26 47 25 E 1028,9 10
24.02.2018 05:00:00 2,4 -2,2 46 25 47 25 ESE 1028,4 10
24.02.2018 04:00:00 2,4 -2,4 44 24 50 27 ESE 1028,1 10
24.02.2018 03:00:00 2,6 -2,7 50 27 50 27 ESE 1027,9 10
24.02.2018 02:00:00 2,7 -3,0 52 28 50 27 ESE 1027,8 10
24.02.2018 01:00:00 2,4 -3,1 46 25 47 25 ESE 1027,9 10
24.02.2018 00:00:00 2,4 -2,5 44 24 47 25 ESE 1027,6 10
23.02.2018 23:00:00 2,4 -2,5 46 25 47 25 ESE 1027,3 10
23.02.2018 22:00:00 2,3 -2,9 42 23 43 23 E 1027,3 10
23.02.2018 21:00:00 2,2 -2,6 39 21 40 21 E 1027,1 10
23.02.2018 20:00:00 1,9 -3,2 32 18 40 21 E 1027,3 42
23.02.2018 19:00:00 2,1 -3,3 37 20 36 19 E 1026,9 10
23.02.2018 18:00:00 2,1 -3,6 34 18 32 18 E 1026,7 10
23.02.2018 17:00:00 2,1 -4,3 31 17 40 21 ESE 1026,8 10
23.02.2018 16:00:00 2,2 -4,0 25 14 32 18 E 1027,0 42
23.02.2018 15:00:00 2,3 -3,8 29 16 32 18 ESE 1026,9 10
23.02.2018 14:00:00 2,5 -3,7 25 14 29 16 E 1027,0 37
23.02.2018 13:00:00 2,6 -3,7 26 14 29 16 ESE 1027,3 10
23.02.2018 12:00:00 2,7 -3,3 28 15 29 16 ESE 1027,5 10
23.02.2018 11:00:00 2,7 -3,1 22 12 25 14 ESE 1027,8 10
23.02.2018 10:00:00 2,8 -2,8 24 13 32 18 ESE 1027,6 10
23.02.2018 09:00:00 2,8 -2,9 22 12 32 18 ESE 1027,3 41
23.02.2018 08:00:00 2,9 -2,1 22 12 25 14 ESE 1027,0 10
23.02.2018 07:00:00 2,8 -2,3 26 14 29 16 ESE 1026,6 10
23.02.2018 06:00:00 3,1 -1,7 28 15 29 16 ESE 1026,4 10
23.02.2018 05:00:00 3,2 -0,9 28 15 29 16 ESE 1026,0 10
23.02.2018 04:00:00 3,4 -0,5 28 15 29 16 ESE 1026,1 10
23.02.2018 03:00:00 3,8 0,5 22 12 25 14 ESE 1026,4 10
23.02.2018 02:00:00 3,6 0,8 18 10 18 10 ESE 1026,6 10
23.02.2018 01:00:00 4,0 0,9 15 8 18 10 ESE 1026,6 10
23.02.2018 00:00:00 3,6 0,8 18 10 18 10 E 1026,7 10
22.02.2018 23:00:00 3,9 1,1 16 9 22 12 E 1026,8 10
22.02.2018 22:00:00 4,3 1,6 13 7 11 6 ENE 1026,8 10
22.02.2018 21:00:00 4,2 1,4 11 6 11 6 NE 1026,8 10
22.02.2018 20:00:00 4,2 1,1 11 6 14 8 NE 1026,7 34
22.02.2018 19:00:00 4,2 1,3 11 6 14 8 NNW 1026,6 10
22.02.2018 18:00:00 4,1 1,1 9 5 14 8 - 1026,7 10
22.02.2018 17:00:00 4,1 0,8 11 6 14 8 NNW 1026,8 10
22.02.2018 16:00:00 4,1 0,5 11 6 14 8 NW 1026,8 19
22.02.2018 15:00:00 4,0 0,9 13 7 14 8 NW 1026,9 10
22.02.2018 14:00:00 3,9 1,0 11 6 11 6 NW 1027,3 10
22.02.2018 13:00:00 3,9 0,9 11 6 32 18 WNW 1027,9 10
22.02.2018 12:00:00 3,9 0,8 11 6 11 6 W 1028,0 10
22.02.2018 11:00:00 3,7 0,7 9 5 11 6 NW 1028,1 10
22.02.2018 10:00:00 3,6 0,5 9 5 11 6 NW 1028,0 10
22.02.2018 09:00:00 3,5 0,2 8 4 11 6 NW 1028,0 10
22.02.2018 08:00:00 3,3 -0,3 9 5 11 6 WNW 1027,9 10
22.02.2018 07:00:00 3,3 -0,6 8 4 7 4 WSW 1027,7 10
22.02.2018 06:00:00 3,2 -0,6 8 4 7 4 W 1027,9 10
22.02.2018 05:00:00 3,2 -0,8 5 3 7 4 WSW 1027,8 10
22.02.2018 04:00:00 3,2 -1,0 4 2 7 4 WSW 1027,7 22
22.02.2018 03:00:00 3,3 -0,9 8 4 7 4 SSW 1027,8 10
22.02.2018 02:00:00 3,2 -1,3 8 4 7 4 WSW 1028,0 10
22.02.2018 01:00:00 3,2 -1,5 5 3 7 4 W 1028,4 10
22.02.2018 00:00:00 3,2 -1,6 5 3 7 4 S 1028,6 10
21.02.2018 23:00:00 3,3 -1,5 8 4 7 4 SSE 1028,8 10
21.02.2018 22:00:00 3,2 -1,1 4 2 7 4 - 1028,6 10
21.02.2018 21:00:00 3,4 -0,8 8 4 11 6 SSE 1028,5 10
21.02.2018 20:00:00 3,4 -0,9 5 3 11 6 SE 1028,0 10
21.02.2018 19:00:00 3,6 -1,3 9 5 11 6 SE 1027,9 10
21.02.2018 18:00:00 3,7 -1,3 8 4 14 8 SE 1027,5 10
21.02.2018 17:00:00 4,2 -1,1 9 5 11 6 SE 1027,4 10
21.02.2018 16:00:00 4,2 -0,9 9 5 11 6 ESE 1027,4 10
21.02.2018 15:00:00 4,2 -0,5 11 6 11 6 ESE 1027,6 10
21.02.2018 14:00:00 4,1 -0,3 11 6 11 6 E 1027,9 10
21.02.2018 13:00:00 4,2 -0,4 5 3 7 4 ESE 1028,4 10
21.02.2018 12:00:00 4,3 -0,1 4 2 7 4 SSE 1028,1 15
21.02.2018 11:00:00 4,3 -0,3 8 4 11 6 S 1028,2 10
21.02.2018 10:00:00 4,2 -0,2 11 6 14 8 S 1027,7 10
21.02.2018 09:00:00 4,0 -0,4 13 7 29 16 SSE 1027,3 10
21.02.2018 08:00:00 4,1 0,1 15 8 18 10 SSE 1027,1 10
21.02.2018 07:00:00 4,0 0,3 18 10 22 12 SSE 1026,9 10
21.02.2018 06:00:00 4,2 0,9 22 12 22 12 SE 1026,8 9
21.02.2018 05:00:00 4,4 0,3 18 10 22 12 SSE 1027,0 10
21.02.2018 04:00:00 4,4 0,3 21 11 18 10 SSE 1027,0 10
21.02.2018 03:00:00 4,5 1,0 18 10 18 10 SE 1027,0 9
21.02.2018 02:00:00 4,6 1,5 15 8 14 8 SE 1026,8 6
21.02.2018 01:00:00 4,6 1,9 13 7 11 6 SE 1026,4 7
21.02.2018 00:00:00 4,7 2,3 11 6 11 6 SSE 1026,1 7
20.02.2018 23:00:00 4,7 2,7 5 3 7 4 ESE 1026,0 10
20.02.2018 22:00:00 4,7 2,1 5 3 7 4 ESE 1025,7 9
20.02.2018 21:00:00 4,6 2,6 2 1 7 4 E 1025,1 8
20.02.2018 20:00:00 4,6 2,4 5 3 7 4 ENE 1024,8 8
20.02.2018 19:00:00 4,6 2,6 8 4 7 4 E 1024,1 7
20.02.2018 18:00:00 4,7 2,9 5 3 7 4 E 1023,4 6
20.02.2018 17:00:00 4,7 2,8 4 2 7 4 E 1022,6 6
20.02.2018 16:00:00 4,7 2,7 7 4 7 4 ESE 1021,8 7
20.02.2018 15:00:00 4,9 3,0 13 7 14 8 S 1021,3 6
20.02.2018 14:00:00 4,6 3,0 8 4 11 6 S 1021,2 7
20.02.2018 13:00:00 4,3 2,8 13 7 25 14 S 1021,0 10
20.02.2018 12:00:00 4,4 3,0 13 7 14 8 SE 1020,6 10
20.02.2018 11:00:00 4,4 2,6 16 9 18 10 E 1020,3 9
20.02.2018 10:00:00 4,2 2,1 14 8 18 10 E 1019,9 11
20.02.2018 09:00:00 4,3 2,4 18 10 22 12 ESE 1019,5 6
20.02.2018 08:00:00 4,5 3,0 9 5 11 6 E 1019,2 5
20.02.2018 07:00:00 4,6 2,8 8 4 7 4 SE 1019,0 6
20.02.2018 06:00:00 4,6 3,1 8 4 7 4 SSE 1019,0 6
20.02.2018 05:00:00 4,6 3,0 9 5 11 6 SE 1019,1 5
20.02.2018 04:00:00 4,6 3,1 11 6 11 6 SE 1019,2 7
20.02.2018 03:00:00 4,7 3,0 11 6 11 6 SSE 1019,4 7
20.02.2018 02:00:00 4,7 3,6 8 4 11 6 SE 1019,4 6
20.02.2018 01:00:00 4,7 3,6 9 5 11 6 SE 1019,4 5
20.02.2018 00:00:00 4,6 3,2 8 4 14 8 SE 1019,1 4,7
19.02.2018 23:00:00 4,6 3,6 15 8 14 8 ESE 1018,5 4,3
19.02.2018 22:00:00 4,7 3,7 11 6 14 8 SE 1018,8 3,9
19.02.2018 21:00:00 4,9 3,8 11 6 11 6 SSE 1019,0 6
19.02.2018 20:00:00 5,0 4,1 11 6 11 6 SSE 1018,7 5
19.02.2018 19:00:00 5,2 4,5 13 7 14 8 S 1018,5 4,6
19.02.2018 18:00:00 5,5 4,8 9 5 18 10 S 1017,8 5
19.02.2018 17:00:00 5,5 4,6 14 8 22 12 SSE 1017,7 9
19.02.2018 16:00:00 5,6 5,0 11 6 14 8 SSE 1017,6 6
19.02.2018 15:00:00 5,6 4,6 15 8 14 8 SSE 1017,6 6
19.02.2018 14:00:00 5,8 5,2 11 6 18 10 S 1017,6 6
19.02.2018 13:00:00 5,7 4,7 18 10 18 10 S 1017,5 7
19.02.2018 12:00:00 5,7 5,1 22 12 18 10 S 1017,5 5
19.02.2018 11:00:00 5,5 4,8 21 11 18 10 S 1017,5 4,5
19.02.2018 10:00:00 5,5 5,0 18 10 32 18 S 1017,6 3,5
19.02.2018 09:00:00 5,4 4,8 21 11 18 10 S 1017,7 2,5
19.02.2018 08:00:00 5,4 4,8 18 10 18 10 SSE 1017,7 2,3
19.02.2018 07:00:00 5,3 4,4 14 8 18 10 S 1017,5 4,4
19.02.2018 06:00:00 5,3 4,6 18 10 18 10 S 1017,6 3,4
19.02.2018 05:00:00 5,2 4,4 22 12 22 12 S 1017,8 4,6
19.02.2018 04:00:00 5,1 4,3 22 12 22 12 SSW 1018,0 9
19.02.2018 03:00:00 5,1 4,2 26 14 25 14 SSW 1018,6 6
19.02.2018 02:00:00 5,0 4,0 28 15 29 16 SSW 1019,2 5
19.02.2018 01:00:00 5,1 4,1 29 16 29 16 SSW 1019,8 3,4
19.02.2018 00:00:00 5,1 4,4 28 15 25 14 SSW 1020,2 4,3
18.02.2018 23:00:00 5,2 4,3 28 15 29 16 SSW 1020,6 4,2
18.02.2018 22:00:00 5,2 4,3 29 16 32 18 SSW 1020,8 4,2

tt = Température de l'air
td = dewpoint
ff = Vitesse du vent
fx = gusts
dd = Direction du vent
ppp = reduced air pressure
vv = visibility

stations d'obs. à proximité